EW6956 Weather Reports


Display with metric or nautical units.
time (UTC)temp
F
wind
direction
speed
MPH
gust
MPH
rain 1hr
in
rain 24hr
in
rain mn
in
humidity
%
barometer
mb
20260505153031 65 53 0.0 1.0 0.00 0.00 0.00 1 1005.1
20260505151519 64 12 0.0 0.0 0.00 0.00 0.00 1 1005.0
20260505124516 61 306 0.0 0.0 0.00 0.01 0.00 1 1004.2
20260505123013 61 53 0.0 0.0 0.00 0.01 0.00 1 1004.2
20260505121513 61 336 0.0 0.0 0.00 0.01 0.00 1 1004.1
20260505120006 61 342 0.0 4.0 0.00 0.01 0.00 1 1003.7
20260505114502 61 330 0.0 2.0 0.00 0.01 0.00 1 1004.7
20260505113058 60 306 0.0 0.0 0.00 0.01 0.00 1 1004.9
20260505111605 60 306 0.0 0.0 0.00 0.01 0.00 1 1005.6
20260505101536 61 239 0.0 0.0 0.00 0.01 0.00 1 1004.2
20260505100035 61 67 0.0 1.0 0.00 0.01 0.00 1 1004.0
20260505094528 62 149 0.0 0.0 0.00 0.01 0.00 1 1005.5
20260505093027 63 149 0.0 0.0 0.00 0.01 0.00 14 1004.8
20260505091520 64 149 0.0 0.0 0.00 0.01 0.00 31 1004.7
20260505090015 65 149 0.0 0.0 0.00 0.01 0.00 52 1004.7
20260505084518 65 149 0.0 0.0 0.00 0.01 0.00 58 1004.1
20260505083020 66 146 0.0 0.0 0.00 0.01 0.00 60 1003.6
20260505081516 66 344 0.0 0.0 0.00 0.01 0.00 61 1003.3
20260505080028 66 102 0.0 0.0 0.00 0.01 0.00 60 1003.4
20260505074509 66 55 0.0 0.0 0.00 0.01 0.00 60 1003.7
20260505073009 65 143 0.0 0.0 0.00 0.01 0.00 59 1003.8
20260505071504 64 149 0.0 0.0 0.00 0.01 0.00 58 1004.3
20260505070002 64 121 0.0 0.0 0.00 0.01 0.00 57 1004.6
20260505064605 64 128 0.0 0.0 0.00 0.01 0.00 56 1004.6
20260505063059 65 128 0.0 0.0 0.00 0.01 0.00 58 1004.8
20260505061557 65 128 0.0 0.0 0.00 0.01 0.00 58 1004.9
20260505060101 65 60 0.0 0.0 0.00 0.01 0.00 58 1005.0
20260505054601 65 207 0.0 0.0 0.00 0.01 0.00 58 1005.3
20260505053108 65 33 0.0 0.0 0.00 0.01 0.00 57 1005.5
20260505051550 65 162 0.0 0.0 0.00 0.01 0.00 55 1005.7
20260505041536 65 98 0.0 0.0 0.00 0.01 0.01 52 1006.0
20260505040031 66 98 0.0 0.0 0.00 0.01 0.01 52 1006.1
20260505034527 66 98 0.0 0.0 0.00 0.01 0.01 55 1006.3
20260505033022 67 97 0.0 0.0 0.00 0.01 0.01 55 1006.4
20260505031518 67 96 0.0 0.0 0.00 0.01 0.01 59 1006.3
20260505030013 67 60 0.0 0.0 0.00 0.01 0.01 60 1006.0
20260505024528 68 320 0.0 0.0 0.00 0.01 0.01 61 1006.0
20260505023004 68 319 0.0 0.0 0.00 0.01 0.01 61 1005.7
20260505021600 69 319 0.0 0.0 0.00 0.01 0.01 62 1005.6
20260505020056 70 316 0.0 0.0 0.00 0.01 0.01 62 1005.4
20260505014552 71 181 0.0 0.0 0.00 0.01 0.01 60 1005.2
20260505013047 72 268 0.0 0.0 0.00 0.01 0.01 58 1004.8
20260505011543 72 269 0.0 0.0 0.00 0.01 0.01 57 1004.8
20260505010042 73 327 0.0 0.0 0.00 0.01 0.01 59 1004.5
20260505004535 74 325 0.0 0.0 0.00 0.01 0.01 55 1004.2
20260505003029 75 175 0.0 3.0 0.00 0.01 0.01 53 1004.2
20260505001528 76 259 0.0 0.0 0.00 0.01 0.01 54 1004.3
20260505000030 76 200 0.0 4.0 0.00 0.01 0.01 51 1004.3
20260504234516 77 260 0.0 2.0 0.00 0.01 0.01 50 1004.4
20260504233017 78 197 0.0 7.0 0.00 0.01 0.01 49 1004.4
20260504231522 78 285 0.0 6.0 0.00 0.01 0.01 48 1004.6
20260504230003 79 209 0.0 1.0 0.00 0.01 0.01 48 1004.7
20260504224602 79 209 0.0 5.0 0.00 0.01 0.01 46 1004.7
20260504223055 80 173 0.0 6.0 0.00 0.01 0.01 44 1004.7
20260504221557 81 281 1.0 11.0 0.00 0.01 0.01 44 1004.6
20260504220046 81 194 0.0 6.0 0.00 0.01 0.01 43 1004.7
20260504214543 81 234 0.0 10.0 0.00 0.01 0.01 43 1004.7
20260504213037 82 229 0.0 0.0 0.00 0.01 0.01 44 1004.9
20260504211534 82 234 1.0 7.0 0.00 0.01 0.01 42 1004.9
20260504210034 82 258 0.0 4.0 0.00 0.01 0.01 45 1005.1
20260504204524 82 306 0.0 8.0 0.00 0.01 0.01 43 1005.3
20260504203025 81 216 0.0 4.0 0.00 0.01 0.01 43 1005.4
20260504201513 81 211 0.0 8.0 0.00 0.01 0.01 44 1005.5
20260504200009 81 104 0.0 6.0 0.00 0.01 0.01 48 1005.7
20260504194508 81 206 0.0 4.0 0.00 0.01 0.01 46 1005.9
20260504193101 80 96 0.0 10.0 0.00 0.01 0.01 45 1006.2
20260504191555 80 191 0.0 9.0 0.00 0.01 0.01 45 1006.3
20260504190117 80 234 0.0 4.0 0.00 0.01 0.01 45 1006.3
20260504184555 80 336 0.0 3.0 0.00 0.01 0.01 45 1006.3
20260504183042 80 240 0.0 7.0 0.00 0.01 0.01 46 1006.5
20260504181544 79 235 0.0 5.0 0.00 0.01 0.01 46 1006.5
20260504180050 79 153 0.0 8.0 0.00 0.01 0.01 45 1006.8
20260504174529 78 225 1.0 12.0 0.00 0.01 0.01 45 1007.1
20260504173025 79 216 0.0 6.0 0.00 0.01 0.01 45 1007.3
20260504171520 78 168 2.0 10.0 0.00 0.01 0.01 45 1007.4